Location: Arbon
(43.0005°N, 0.7472°E)
Time: 22:51:48
(UTC+00:00)

Courier 1B Rocket - Pass Details

Date: 05 December 2020
Orbit: 920 x 1202 km, 28.2° (Epoch: 22 January)

Event Time Altitude Azimuth Distance (km) Brightness Sun altitude
Rises 03:21:56 0° 229° (SW) 3,971 - -41.4°
Reaches altitude 10° 03:25:21 10° 215° (SW) 3,052 - -40.8°
Maximum altitude 03:30:57 23° 167° (SSE) 2,298 - -39.8°
Exits shadow 03:32:04 22° 155° (SSE) 2,340 7.0 -39.6°
Drops below altitude 10° 03:36:41 10° 120° (ESE) 3,128 8.1 -38.7°
Sets 03:40:14 0° 106° (ESE) 4,095 9.1 -38.1°
